Time,TemperatureF,DewpointF,PressureIn,WindDirection,WindDirectionDegrees,WindSpeedMPH,WindSpeedGustMPH,Humidity,HourlyPrecipIn,Conditions,Clouds,dailyrainin,SoftwareType,DateUTC
2013-11-02 00:01:00,60.7,45.8,29.97,NNE,23,0.0,4.7,58,0.00,,,0.00,WUHU216HW,2013-11-02 05:01:00,
2013-11-02 00:06:00,60.3,46.0,29.97,NNW,338,1.1,2.9,59,0.00,,,0.00,WUHU216HW,2013-11-02 05:06:00,
2013-11-02 00:11:00,60.1,46.3,29.97,NNW,338,4.0,4.0,60,0.00,,,0.00,WUHU216HW,2013-11-02 05:11:00,
2013-11-02 00:16:00,59.8,45.9,29.97,NNW,338,1.1,4.0,60,0.00,,,0.00,WUHU216HW,2013-11-02 05:16:00,
2013-11-02 00:21:00,59.6,45.7,29.97,North,0,1.8,2.5,60,0.00,,,0.00,WUHU216HW,2013-11-02 05:21:00,
2013-11-02 00:26:00,59.4,45.5,29.97,North,0,3.6,4.9,60,0.00,,,0.00,WUHU216HW,2013-11-02 05:26:00,
2013-11-02 00:31:00,59.4,45.5,29.97,NNW,338,1.8,4.9,60,0.00,,,0.00,WUHU216HW,2013-11-02 05:31:00,
2013-11-02 00:36:00,59.4,45.5,29.97,North,0,1.8,4.0,60,0.00,,,0.00,WUHU216HW,2013-11-02 05:36:00,
2013-11-02 00:41:00,59.2,45.4,29.98,NNW,338,1.6,1.8,60,0.00,,,0.00,WUHU216HW,2013-11-02 05:41:00,
2013-11-02 00:46:00,59.0,45.2,29.97,NNW,338,0.4,2.5,60,0.00,,,0.00,WUHU216HW,2013-11-02 05:46:00,
2013-11-02 00:51:00,58.9,45.0,29.97,North,0,1.3,2.5,60,0.00,,,0.00,WUHU216HW,2013-11-02 05:51:00,
2013-11-02 00:56:00,58.7,44.8,29.97,NNW,338,1.3,2.5,60,0.00,,,0.00,WUHU216HW,2013-11-02 05:56:00,
2013-11-02 01:01:00,58.3,44.9,29.98,WNW,293,0.7,2.9,61,0.00,,,0.00,WUHU216HW,2013-11-02 06:01:00,
2013-11-02 01:06:00,58.3,44.6,29.98,NW,315,1.8,4.0,60,0.00,,,0.00,WUHU216HW,2013-11-02 06:06:00,
2013-11-02 01:11:00,58.1,44.8,29.98,North,0,0.9,4.0,61,0.00,,,0.00,WUHU216HW,2013-11-02 06:11:00,
2013-11-02 01:16:00,58.1,44.4,29.98,NW,315,1.3,3.4,60,0.00,,,0.00,WUHU216HW,2013-11-02 06:16:00,
2013-11-02 01:21:00,58.0,44.7,29.99,NNW,338,3.4,3.4,61,0.00,,,0.00,WUHU216HW,2013-11-02 06:21:00,
2013-11-02 01:26:00,57.8,44.5,29.99,NNW,338,1.8,3.4,61,0.00,,,0.00,WUHU216HW,2013-11-02 06:26:00,
2013-11-02 01:31:00,57.6,44.6,29.99,NNW,338,0.7,1.8,62,0.00,,,0.00,WUHU216HW,2013-11-02 06:31:00,
2013-11-02 01:36:00,57.2,44.4,29.99,NW,315,0.7,0.9,62,0.00,,,0.00,WUHU216HW,2013-11-02 06:36:00,
2013-11-02 01:41:00,57.1,44.6,29.99,North,0,0.0,1.1,63,0.00,,,0.00,WUHU216HW,2013-11-02 06:41:00,
2013-11-02 01:46:00,56.9,44.4,29.99,WNW,293,0.2,1.1,63,0.00,,,0.00,WUHU216HW,2013-11-02 06:46:00,
2013-11-02 01:51:00,56.7,44.7,29.99,South,180,0.0,1.8,64,0.00,,,0.00,WUHU216HW,2013-11-02 06:51:00,
2013-11-02 01:56:00,56.5,44.5,29.99,SE,135,0.2,1.8,64,0.00,,,0.00,WUHU216HW,2013-11-02 06:56:00,
2013-11-02 02:01:00,56.2,44.1,29.99,NNW,338,0.0,1.1,64,0.00,,,0.00,WUHU216HW,2013-11-02 07:01:00,
2013-11-02 02:06:00,56.0,43.9,29.99,North,0,0.2,1.1,64,0.00,,,0.00,WUHU216HW,2013-11-02 07:06:00,
2013-11-02 02:11:00,55.8,43.7,30.00,North,0,0.0,0.7,64,0.00,,,0.00,WUHU216HW,2013-11-02 07:11:00,
2013-11-02 02:16:00,55.6,44.0,30.00,NNW,338,0.0,0.7,65,0.00,,,0.00,WUHU216HW,2013-11-02 07:16:00,
2013-11-02 02:21:00,55.4,43.8,30.00,NNW,338,1.1,1.6,65,0.00,,,0.00,WUHU216HW,2013-11-02 07:21:00,
2013-11-02 02:26:00,55.1,43.9,30.00,NNW,338,0.0,1.6,66,0.00,,,0.00,WUHU216HW,2013-11-02 07:26:00,
2013-11-02 02:31:00,55.1,43.9,30.00,NNW,338,0.0,1.1,66,0.00,,,0.00,WUHU216HW,2013-11-02 07:31:00,
2013-11-02 02:36:00,55.1,43.9,30.00,NNW,338,0.4,2.5,66,0.00,,,0.00,WUHU216HW,2013-11-02 07:36:00,
2013-11-02 02:41:00,54.7,43.9,30.00,ESE,113,0.0,2.5,67,0.00,,,0.00,WUHU216HW,2013-11-02 07:41:00,
2013-11-02 02:46:00,54.4,43.7,30.01,East,90,0.0,0.4,67,0.00,,,0.00,WUHU216HW,2013-11-02 07:46:00,
2013-11-02 02:51:00,54.2,43.8,30.00,North,0,0.0,0.7,68,0.00,,,0.00,WUHU216HW,2013-11-02 07:51:00,
2013-11-02 02:56:00,54.0,43.7,30.01,NW,315,0.0,1.3,68,0.00,,,0.00,WUHU216HW,2013-11-02 07:56:00,
2013-11-02 03:01:00,53.8,43.5,30.01,NNE,23,0.4,1.3,68,0.00,,,0.00,WUHU216HW,2013-11-02 08:01:00,
2013-11-02 03:06:00,53.6,43.3,30.01,NE,45,0.4,0.4,68,0.00,,,0.00,WUHU216HW,2013-11-02 08:06:00,
2013-11-02 03:11:00,53.5,43.1,30.01,NE,45,0.0,0.4,68,0.00,,,0.00,WUHU216HW,2013-11-02 08:11:00,
2013-11-02 03:16:00,53.3,43.4,30.01,NE,45,0.0,0.4,69,0.00,,,0.00,WUHU216HW,2013-11-02 08:16:00,
2013-11-02 03:21:00,53.1,43.2,30.01,NE,45,0.0,0.2,69,0.00,,,0.00,WUHU216HW,2013-11-02 08:21:00,
2013-11-02 03:26:00,52.7,42.9,30.01,NE,45,0.0,0.0,69,0.00,,,0.00,WUHU216HW,2013-11-02 08:26:00,
2013-11-02 03:31:00,52.2,42.9,30.01,ENE,68,0.0,0.0,70,0.00,,,0.00,WUHU216HW,2013-11-02 08:31:00,
2013-11-02 03:36:00,51.8,42.0,30.01,ENE,68,0.0,0.0,69,0.00,,,0.00,WUHU216HW,2013-11-02 08:36:00,
2013-11-02 03:41:00,51.7,41.9,30.02,ENE,68,0.0,0.0,69,0.00,,,0.00,WUHU216HW,2013-11-02 08:41:00,
2013-11-02 03:46:00,51.5,42.1,30.02,ENE,68,0.0,0.0,70,0.00,,,0.00,WUHU216HW,2013-11-02 08:46:00,
2013-11-02 03:51:00,51.1,41.8,30.01,ENE,68,0.0,0.0,70,0.00,,,0.00,WUHU216HW,2013-11-02 08:51:00,
2013-11-02 03:56:00,50.9,42.0,30.01,ENE,68,0.0,0.0,71,0.00,,,0.00,WUHU216HW,2013-11-02 08:56:00,
2013-11-02 04:01:00,50.8,42.1,30.01,ENE,68,0.0,0.0,72,0.00,,,0.00,WUHU216HW,2013-11-02 09:01:00,
2013-11-02 04:06:00,50.4,41.4,30.02,ENE,68,0.0,0.0,71,0.00,,,0.00,WUHU216HW,2013-11-02 09:06:00,
2013-11-02 04:11:00,50.2,41.6,30.02,ENE,68,0.0,0.0,72,0.00,,,0.00,WUHU216HW,2013-11-02 09:11:00,
2013-11-02 04:16:00,50.0,41.4,30.02,ENE,68,0.0,0.0,72,0.00,,,0.00,WUHU216HW,2013-11-02 09:16:00,
2013-11-02 04:21:00,49.9,41.2,30.02,ENE,68,0.0,0.0,72,0.00,,,0.00,WUHU216HW,2013-11-02 09:21:00,
2013-11-02 04:26:00,49.7,41.3,30.02,ENE,68,0.0,0.0,73,0.00,,,0.00,WUHU216HW,2013-11-02 09:26:00,
2013-11-02 04:31:00,49.5,41.5,30.02,SSW,203,0.0,0.0,74,0.00,,,0.00,WUHU216HW,2013-11-02 09:31:00,
2013-11-02 04:36:00,49.5,41.9,30.03,NW,315,0.0,1.1,75,0.00,,,0.00,WUHU216HW,2013-11-02 09:36:00,
2013-11-02 04:41:00,49.7,42.0,30.03,WSW,248,0.4,1.1,75,0.00,,,0.00,WUHU216HW,2013-11-02 09:41:00,
2013-11-02 04:46:00,49.7,42.0,30.03,WSW,248,0.0,0.4,75,0.00,,,0.00,WUHU216HW,2013-11-02 09:46:00,
2013-11-02 04:51:00,49.5,41.9,30.03,NNW,338,0.0,0.2,75,0.00,,,0.00,WUHU216HW,2013-11-02 09:51:00,
2013-11-02 04:56:00,49.5,41.9,30.03,ESE,113,0.2,0.7,75,0.00,,,0.00,WUHU216HW,2013-11-02 09:56:00,
2013-11-02 05:01:00,49.5,41.9,30.03,ESE,113,0.0,0.7,75,0.00,,,0.00,WUHU216HW,2013-11-02 10:01:00,
2013-11-02 05:06:00,49.5,41.9,30.04,NNE,23,0.2,0.4,75,0.00,,,0.00,WUHU216HW,2013-11-02 10:06:00,
2013-11-02 05:11:00,49.5,42.2,30.04,SE,135,0.2,0.2,76,0.00,,,0.00,WUHU216HW,2013-11-02 10:11:00,
2013-11-02 05:16:00,49.5,41.9,30.04,SE,135,0.0,0.2,75,0.00,,,0.00,WUHU216HW,2013-11-02 10:16:00,
2013-11-02 05:21:00,49.3,42.0,30.04,West,270,0.2,0.9,76,0.00,,,0.00,WUHU216HW,2013-11-02 10:21:00,
2013-11-02 05:26:00,49.3,42.4,30.04,SW,225,0.4,0.9,77,0.00,,,0.00,WUHU216HW,2013-11-02 10:26:00,
2013-11-02 05:31:00,49.1,41.9,30.04,SW,225,0.0,0.4,76,0.00,,,0.00,WUHU216HW,2013-11-02 10:31:00,
2013-11-02 05:36:00,49.1,41.9,30.04,SW,225,0.7,0.9,76,0.00,,,0.00,WUHU216HW,2013-11-02 10:36:00,
2013-11-02 05:41:00,49.3,42.0,30.05,SW,225,0.4,0.9,76,0.00,,,0.00,WUHU216HW,2013-11-02 10:41:00,
2013-11-02 05:46:00,49.3,42.4,30.05,WSW,248,0.4,1.8,77,0.00,,,0.00,WUHU216HW,2013-11-02 10:46:00,
2013-11-02 05:51:00,49.3,42.0,30.05,WSW,248,0.0,1.8,76,0.00,,,0.00,WUHU216HW,2013-11-02 10:51:00,
2013-11-02 05:56:00,49.3,42.0,30.05,West,270,0.0,0.2,76,0.00,,,0.00,WUHU216HW,2013-11-02 10:56:00,
2013-11-02 06:01:00,49.3,42.4,30.05,North,0,0.0,1.1,77,0.00,,,0.00,WUHU216HW,2013-11-02 11:01:00,
2013-11-02 06:06:00,49.3,42.4,30.05,WSW,248,0.0,2.2,77,0.00,,,0.00,WUHU216HW,2013-11-02 11:06:00,
2013-11-02 06:11:00,49.1,42.2,30.05,SSW,203,0.0,2.2,77,0.00,,,0.00,WUHU216HW,2013-11-02 11:11:00,
2013-11-02 06:16:00,49.3,42.4,30.06,NNW,338,0.7,1.6,77,0.00,,,0.00,WUHU216HW,2013-11-02 11:16:00,
2013-11-02 06:21:00,49.5,42.6,30.06,SW,225,0.4,1.6,77,0.00,,,0.00,WUHU216HW,2013-11-02 11:21:00,
2013-11-02 06:26:00,49.7,42.4,30.06,WSW,248,0.7,1.3,76,0.00,,,0.00,WUHU216HW,2013-11-02 11:26:00,
2013-11-02 06:31:00,49.7,42.4,30.07,North,0,0.0,1.1,76,0.00,,,0.00,WUHU216HW,2013-11-02 11:31:00,
2013-11-02 06:36:00,49.7,42.4,30.07,North,0,1.3,1.3,76,0.00,,,0.00,WUHU216HW,2013-11-02 11:36:00,
2013-11-02 06:41:00,49.7,42.4,30.07,North,0,0.2,1.3,76,0.00,,,0.00,WUHU216HW,2013-11-02 11:41:00,
2013-11-02 06:46:00,49.5,42.2,30.07,North,0,0.0,0.7,76,0.00,,,0.00,WUHU216HW,2013-11-02 11:46:00,
2013-11-02 06:51:00,49.3,42.0,30.07,SW,225,0.0,0.7,76,0.00,,,0.00,WUHU216HW,2013-11-02 11:51:00,
2013-11-02 06:56:00,49.3,42.0,30.08,WSW,248,0.0,0.7,76,0.00,,,0.00,WUHU216HW,2013-11-02 11:56:00,
2013-11-02 07:01:00,49.3,42.0,30.08,NNW,338,0.9,0.9,76,0.00,,,0.00,WUHU216HW,2013-11-02 12:01:00,
2013-11-02 07:06:00,49.3,42.0,30.08,NNW,338,0.4,0.9,76,0.00,,,0.00,WUHU216HW,2013-11-02 12:06:00,
2013-11-02 07:11:00,49.3,42.0,30.08,WNW,293,0.0,0.7,76,0.00,,,0.00,WUHU216HW,2013-11-02 12:11:00,
2013-11-02 07:16:00,49.3,42.0,30.08,WSW,248,0.0,0.4,76,0.00,,,0.00,WUHU216HW,2013-11-02 12:16:00,
2013-11-02 07:21:00,49.3,42.0,30.09,NNW,338,0.4,0.7,76,0.00,,,0.00,WUHU216HW,2013-11-02 12:21:00,
2013-11-02 07:26:00,49.5,41.9,30.09,NW,315,0.4,1.1,75,0.00,,,0.00,WUHU216HW,2013-11-02 12:26:00,
2013-11-02 07:31:00,49.9,42.2,30.10,NE,45,0.0,2.2,75,0.00,,,0.00,WUHU216HW,2013-11-02 12:31:00,
2013-11-02 07:36:00,49.9,41.9,30.10,WSW,248,0.2,2.2,74,0.00,,,0.00,WUHU216HW,2013-11-02 12:36:00,
2013-11-02 07:41:00,49.7,41.7,30.10,North,0,0.9,1.3,74,0.00,,,0.00,WUHU216HW,2013-11-02 12:41:00,
2013-11-02 07:46:00,49.7,41.7,30.10,SW,225,1.6,1.6,74,0.00,,,0.00,WUHU216HW,2013-11-02 12:46:00,
2013-11-02 07:51:00,49.9,41.9,30.11,West,270,0.4,1.6,74,0.00,,,0.00,WUHU216HW,2013-11-02 12:51:00,
2013-11-02 07:56:00,50.2,41.9,30.11,North,0,3.1,3.1,73,0.00,,,0.00,WUHU216HW,2013-11-02 12:56:00,
2013-11-02 08:01:00,50.8,42.1,30.11,West,270,0.7,3.1,72,0.00,,,0.00,WUHU216HW,2013-11-02 13:01:00,
2013-11-02 08:06:00,51.5,42.1,30.11,WNW,293,0.4,3.4,70,0.00,,,0.00,WUHU216HW,2013-11-02 13:06:00,
2013-11-02 08:11:00,52.2,42.9,30.11,NNW,338,0.9,3.4,70,0.00,,,0.00,WUHU216HW,2013-11-02 13:11:00,
2013-11-02 08:16:00,52.7,42.9,30.11,NW,315,0.9,1.8,69,0.00,,,0.00,WUHU216HW,2013-11-02 13:16:00,
2013-11-02 08:21:00,53.3,42.6,30.12,NW,315,1.1,3.6,67,0.00,,,0.00,WUHU216HW,2013-11-02 13:21:00,
2013-11-02 08:26:00,53.8,43.1,30.12,WNW,293,0.0,4.0,67,0.00,,,0.00,WUHU216HW,2013-11-02 13:26:00,
2013-11-02 08:31:00,54.5,43.4,30.13,NW,315,1.8,4.0,66,0.00,,,0.00,WUHU216HW,2013-11-02 13:31:00,
2013-11-02 08:36:00,54.7,43.6,30.13,North,0,0.4,1.8,66,0.00,,,0.00,WUHU216HW,2013-11-02 13:36:00,
2013-11-02 08:41:00,55.1,43.5,30.13,NNW,338,2.5,4.5,65,0.00,,,0.00,WUHU216HW,2013-11-02 13:41:00,
2013-11-02 08:46:00,56.0,43.9,30.13,NNW,338,0.9,4.5,64,0.00,,,0.00,WUHU216HW,2013-11-02 13:46:00,
2013-11-02 08:51:00,57.6,44.3,30.13,North,0,3.4,3.4,61,0.00,,,0.00,WUHU216HW,2013-11-02 13:51:00,
2013-11-02 08:56:00,58.0,44.2,30.13,North,0,1.6,5.4,60,0.00,,,0.00,WUHU216HW,2013-11-02 13:56:00,
2013-11-02 09:01:00,58.5,44.2,30.14,NNW,338,2.5,5.4,59,0.00,,,0.00,WUHU216HW,2013-11-02 14:01:00,
2013-11-02 09:06:00,58.9,44.1,30.14,NW,315,2.5,4.0,58,0.00,,,0.00,WUHU216HW,2013-11-02 14:06:00,
2013-11-02 09:11:00,58.7,43.9,30.14,NW,315,5.4,5.4,58,0.00,,,0.00,WUHU216HW,2013-11-02 14:11:00,
2013-11-02 09:16:00,58.1,43.5,30.14,NW,315,5.1,5.4,58,0.00,,,0.00,WUHU216HW,2013-11-02 14:16:00,
2013-11-02 09:21:00,57.8,43.1,30.15,NNW,338,2.5,5.1,58,0.00,,,0.00,WUHU216HW,2013-11-02 14:21:00,
2013-11-02 09:26:00,57.2,42.7,30.15,NNW,338,2.0,7.2,58,0.00,,,0.00,WUHU216HW,2013-11-02 14:26:00,
2013-11-02 09:31:00,57.4,42.8,30.15,NNE,23,4.7,7.2,58,0.00,,,0.00,WUHU216HW,2013-11-02 14:31:00,
2013-11-02 09:36:00,58.1,43.5,30.16,NW,315,0.9,5.4,58,0.00,,,0.00,WUHU216HW,2013-11-02 14:36:00,
2013-11-02 09:41:00,59.8,44.0,30.16,NW,315,0.4,5.4,56,0.00,,,0.00,WUHU216HW,2013-11-02 14:41:00,
2013-11-02 09:46:00,59.6,42.8,30.16,North,0,1.8,5.8,54,0.00,,,0.00,WUHU216HW,2013-11-02 14:46:00,
2013-11-02 09:51:00,59.8,42.6,30.16,NW,315,5.6,5.8,53,0.00,,,0.00,WUHU216HW,2013-11-02 14:51:00,
2013-11-02 09:56:00,59.6,42.4,30.16,NW,315,2.9,5.6,53,0.00,,,0.00,WUHU216HW,2013-11-02 14:56:00,
2013-11-02 10:01:00,60.1,42.9,30.16,North,0,4.7,5.1,53,0.00,,,0.00,WUHU216HW,2013-11-02 15:01:00,
2013-11-02 10:06:00,60.5,41.8,30.16,NW,315,4.9,5.1,50,0.00,,,0.00,WUHU216HW,2013-11-02 15:06:00,
2013-11-02 10:11:00,60.5,41.8,30.16,North,0,4.0,6.5,50,0.00,,,0.00,WUHU216HW,2013-11-02 15:11:00,
2013-11-02 10:16:00,61.0,41.7,30.16,NNW,338,1.8,6.5,49,0.00,,,0.00,WUHU216HW,2013-11-02 15:16:00,
2013-11-02 10:21:00,61.2,41.3,30.16,NNW,338,2.7,5.6,48,0.00,,,0.00,WUHU216HW,2013-11-02 15:21:00,
2013-11-02 10:26:00,60.8,40.4,30.16,North,0,8.1,9.2,47,0.00,,,0.00,WUHU216HW,2013-11-02 15:26:00,
2013-11-02 10:31:00,60.8,39.8,30.16,NNW,338,2.7,9.2,46,0.00,,,0.00,WUHU216HW,2013-11-02 15:31:00,
2013-11-02 10:36:00,60.8,39.8,30.16,North,0,1.6,6.3,46,0.00,,,0.00,WUHU216HW,2013-11-02 15:36:00,
2013-11-02 10:41:00,61.2,39.6,30.16,North,0,6.3,6.3,45,0.00,,,0.00,WUHU216HW,2013-11-02 15:41:00,
2013-11-02 10:46:00,61.6,39.9,30.16,North,0,4.7,7.6,45,0.00,,,0.00,WUHU216HW,2013-11-02 15:46:00,
2013-11-02 10:51:00,61.6,39.3,30.16,WNW,293,6.3,7.6,44,0.00,,,0.00,WUHU216HW,2013-11-02 15:51:00,
2013-11-02 10:56:00,61.7,37.7,30.17,NW,315,7.6,11.4,41,0.00,,,0.00,WUHU216HW,2013-11-02 15:56:00,
2013-11-02 11:01:00,61.7,37.7,30.17,NW,315,6.0,11.4,41,0.00,,,0.00,WUHU216HW,2013-11-02 16:01:00,
2013-11-02 11:06:00,61.9,37.4,30.17,NNW,338,8.3,8.5,40,0.00,,,0.00,WUHU216HW,2013-11-02 16:06:00,
2013-11-02 11:11:00,61.9,38.5,30.17,NNE,23,5.4,8.3,42,0.00,,,0.00,WUHU216HW,2013-11-02 16:11:00,
2013-11-02 11:16:00,62.3,38.8,30.17,NNW,338,6.9,7.4,42,0.00,,,0.00,WUHU216HW,2013-11-02 16:16:00,
2013-11-02 11:21:00,62.5,38.4,30.17,NNW,338,4.3,6.9,41,0.00,,,0.00,WUHU216HW,2013-11-02 16:21:00,
2013-11-02 11:26:00,62.3,38.3,30.17,North,0,7.2,7.6,41,0.00,,,0.00,WUHU216HW,2013-11-02 16:26:00,
2013-11-02 11:31:00,63.2,39.6,30.18,North,0,8.3,8.3,42,0.00,,,0.00,WUHU216HW,2013-11-02 16:31:00,
2013-11-02 11:36:00,63.7,40.2,30.18,NNE,23,8.1,9.2,42,0.00,,,0.00,WUHU216HW,2013-11-02 16:36:00,
2013-11-02 11:41:00,63.2,39.1,30.18,NNW,338,6.3,9.2,41,0.00,,,0.00,WUHU216HW,2013-11-02 16:41:00,
2013-11-02 11:46:00,63.0,39.4,30.18,NNW,338,6.3,8.5,42,0.00,,,0.00,WUHU216HW,2013-11-02 16:46:00,
2013-11-02 11:51:00,63.4,40.3,30.18,North,0,4.9,6.3,43,0.00,,,0.00,WUHU216HW,2013-11-02 16:51:00,
2013-11-02 11:56:00,63.7,39.0,30.18,NNW,338,2.2,9.2,40,0.00,,,0.00,WUHU216HW,2013-11-02 16:56:00,
2013-11-02 12:01:00,64.1,38.5,30.18,NNW,338,5.8,9.2,39,0.00,,,0.00,WUHU216HW,2013-11-02 17:01:00,
2013-11-02 12:06:00,64.1,38.5,30.18,North,0,2.5,5.8,39,0.00,,,0.00,WUHU216HW,2013-11-02 17:06:00,
2013-11-02 12:11:00,64.4,38.9,30.18,NW,315,3.1,6.7,39,0.00,,,0.00,WUHU216HW,2013-11-02 17:11:00,
2013-11-02 12:16:00,64.4,38.2,30.17,NNW,338,1.1,9.4,38,0.00,,,0.00,WUHU216HW,2013-11-02 17:16:00,
2013-11-02 12:21:00,65.5,39.2,30.17,WNW,293,6.9,9.4,38,0.00,,,0.00,WUHU216HW,2013-11-02 17:21:00,
2013-11-02 12:26:00,65.5,39.2,30.17,North,0,4.7,7.8,38,0.00,,,0.00,WUHU216HW,2013-11-02 17:26:00,
2013-11-02 12:31:00,65.7,40.1,30.17,NNW,338,1.1,7.8,39,0.00,,,0.00,WUHU216HW,2013-11-02 17:31:00,
2013-11-02 12:36:00,66.1,39.6,30.17,NE,45,2.7,4.7,38,0.00,,,0.00,WUHU216HW,2013-11-02 17:36:00,
2013-11-02 12:41:00,65.9,39.4,30.17,North,0,4.0,5.8,38,0.00,,,0.00,WUHU216HW,2013-11-02 17:41:00,
2013-11-02 12:46:00,65.5,39.2,30.16,NW,315,1.1,5.8,38,0.00,,,0.00,WUHU216HW,2013-11-02 17:46:00,
2013-11-02 12:51:00,65.9,40.1,30.16,East,90,6.5,6.5,39,0.00,,,0.00,WUHU216HW,2013-11-02 17:51:00,
2013-11-02 12:56:00,65.9,38.7,30.15,NNW,338,2.7,6.5,37,0.00,,,0.00,WUHU216HW,2013-11-02 17:56:00,
2013-11-02 13:01:00,65.7,38.6,30.15,NNW,338,6.0,6.3,37,0.00,,,0.00,WUHU216HW,2013-11-02 18:01:00,
2013-11-02 13:06:00,66.1,38.9,30.15,NNW,338,1.8,6.3,37,0.00,,,0.00,WUHU216HW,2013-11-02 18:06:00,
2013-11-02 13:11:00,66.6,39.3,30.15,NW,315,3.6,6.0,37,0.00,,,0.00,WUHU216HW,2013-11-02 18:11:00,
2013-11-02 13:16:00,66.8,38.8,30.14,North,0,4.7,5.4,36,0.00,,,0.00,WUHU216HW,2013-11-02 18:16:00,
2013-11-02 13:21:00,67.0,39.7,30.14,North,0,3.4,5.4,37,0.00,,,0.00,WUHU216HW,2013-11-02 18:21:00,
2013-11-02 13:26:00,66.6,39.3,30.14,NW,315,9.2,9.2,37,0.00,,,0.00,WUHU216HW,2013-11-02 18:26:00,
2013-11-02 13:31:00,66.8,38.1,30.14,NNE,23,5.4,9.2,35,0.00,,,0.00,WUHU216HW,2013-11-02 18:31:00,
2013-11-02 13:36:00,66.6,37.2,30.13,NW,315,10.3,10.3,34,0.00,,,0.00,WUHU216HW,2013-11-02 18:36:00,
2013-11-02 13:41:00,66.4,37.1,30.13,NNW,338,8.5,10.3,34,0.00,,,0.00,WUHU216HW,2013-11-02 18:41:00,
2013-11-02 13:46:00,66.8,38.1,30.13,SW,225,3.6,8.5,35,0.00,,,0.00,WUHU216HW,2013-11-02 18:46:00,
2013-11-02 13:51:00,66.1,36.7,30.13,NNW,338,8.5,8.5,34,0.00,,,0.00,WUHU216HW,2013-11-02 18:51:00,
2013-11-02 13:56:00,66.2,36.9,30.13,NNW,338,4.0,8.5,34,0.00,,,0.00,WUHU216HW,2013-11-02 18:56:00,
2013-11-02 14:01:00,66.6,37.2,30.12,WNW,293,4.0,7.6,34,0.00,,,0.00,WUHU216HW,2013-11-02 19:01:00,
2013-11-02 14:06:00,66.6,37.2,30.13,SSW,203,2.9,6.3,34,0.00,,,0.00,WUHU216HW,2013-11-02 19:06:00,
2013-11-02 14:11:00,67.1,37.6,30.12,NNW,338,1.8,5.6,34,0.00,,,0.00,WUHU216HW,2013-11-02 19:11:00,
2013-11-02 14:16:00,67.1,37.6,30.13,NW,315,3.1,6.3,34,0.00,,,0.00,WUHU216HW,2013-11-02 19:16:00,
2013-11-02 14:21:00,67.1,37.6,30.12,ENE,68,1.1,10.1,34,0.00,,,0.00,WUHU216HW,2013-11-02 19:21:00,
2013-11-02 14:26:00,67.9,37.5,30.12,NNW,338,3.6,10.1,33,0.00,,,0.00,WUHU216HW,2013-11-02 19:26:00,
2013-11-02 14:31:00,68.4,38.0,30.12,North,0,9.8,9.8,33,0.00,,,0.00,WUHU216HW,2013-11-02 19:31:00,
2013-11-02 14:36:00,68.8,37.6,30.12,NW,315,7.2,9.8,32,0.00,,,0.00,WUHU216HW,2013-11-02 19:36:00,
2013-11-02 14:41:00,68.4,36.6,30.12,NNE,23,2.5,7.2,31,0.00,,,0.00,WUHU216HW,2013-11-02 19:41:00,
2013-11-02 14:46:00,68.9,37.7,30.11,WSW,248,6.7,7.8,32,0.00,,,0.00,WUHU216HW,2013-11-02 19:46:00,
2013-11-02 14:51:00,68.0,36.9,30.11,North,0,3.4,7.8,32,0.00,,,0.00,WUHU216HW,2013-11-02 19:51:00,
2013-11-02 14:56:00,67.5,36.5,30.11,ENE,68,1.1,9.2,32,0.00,,,0.00,WUHU216HW,2013-11-02 19:56:00,
2013-11-02 15:00:00,68.6,36.7,30.11,NNE,23,4.7,9.2,31,0.00,,,0.00,WUHU216HW,2013-11-02 20:00:00,
2013-11-02 15:05:00,69.5,37.5,30.12,NNW,338,2.5,5.1,31,0.00,,,0.00,WUHU216HW,2013-11-02 20:05:00,
2013-11-02 15:10:00,70.9,38.1,30.12,West,270,1.8,5.4,30,0.00,,,0.00,WUHU216HW,2013-11-02 20:10:00,
2013-11-02 15:15:00,69.8,36.1,30.11,WNW,293,1.8,5.4,29,0.00,,,0.00,WUHU216HW,2013-11-02 20:15:00,
2013-11-02 15:20:00,70.2,35.4,30.11,North,0,1.3,4.9,28,0.00,,,0.00,WUHU216HW,2013-11-02 20:20:00,
2013-11-02 15:25:00,69.8,35.1,30.11,North,0,6.0,11.9,28,0.00,,,0.00,WUHU216HW,2013-11-02 20:25:00,
2013-11-02 15:30:00,69.5,35.7,30.11,NNW,338,8.1,11.9,29,0.00,,,0.00,WUHU216HW,2013-11-02 20:30:00,
2013-11-02 15:35:00,69.7,35.9,30.11,NNW,338,3.8,8.1,29,0.00,,,0.00,WUHU216HW,2013-11-02 20:35:00,
2013-11-02 15:40:00,69.8,36.1,30.10,North,0,7.4,7.4,29,0.00,,,0.00,WUHU216HW,2013-11-02 20:40:00,
2013-11-02 15:45:00,70.9,38.1,30.10,NW,315,6.3,8.1,30,0.00,,,0.00,WUHU216HW,2013-11-02 20:45:00,
2013-11-02 15:50:00,69.8,36.1,30.10,NW,315,4.0,8.1,29,0.00,,,0.00,WUHU216HW,2013-11-02 20:50:00,
2013-11-02 15:55:00,70.6,37.7,30.09,NE,45,0.9,7.4,30,0.00,,,0.00,WUHU216HW,2013-11-02 20:55:00,
2013-11-02 16:00:00,71.5,37.5,30.09,North,0,4.0,6.9,29,0.00,,,0.00,WUHU216HW,2013-11-02 21:00:00,
2013-11-02 16:06:00,71.3,38.3,30.09,NNW,338,1.1,7.2,30,0.00,,,0.00,WUHU216HW,2013-11-02 21:06:00,
2013-11-02 16:10:00,70.7,35.8,30.09,NNW,338,1.6,7.2,28,0.00,,,0.00,WUHU216HW,2013-11-02 21:10:00,
2013-11-02 16:15:00,70.0,37.3,30.08,WNW,293,1.1,4.3,30,0.00,,,0.00,WUHU216HW,2013-11-02 21:15:00,
2013-11-02 16:20:00,70.4,37.5,30.08,NNE,23,5.1,5.1,30,0.00,,,0.00,WUHU216HW,2013-11-02 21:20:00,
2013-11-02 16:25:00,70.9,37.0,30.08,North,0,2.7,5.1,29,0.00,,,0.00,WUHU216HW,2013-11-02 21:25:00,
2013-11-02 16:30:00,71.6,38.7,30.08,North,0,3.8,4.7,30,0.00,,,0.00,WUHU216HW,2013-11-02 21:30:00,
2013-11-02 16:35:00,70.6,35.7,30.08,NNW,338,4.0,8.1,28,0.00,,,0.00,WUHU216HW,2013-11-02 21:35:00,
2013-11-02 16:40:00,69.7,35.9,30.08,NNW,338,2.5,8.1,29,0.00,,,0.00,WUHU216HW,2013-11-02 21:40:00,
2013-11-02 16:45:00,70.0,37.3,30.08,NNW,338,3.4,3.4,30,0.00,,,0.00,WUHU216HW,2013-11-02 21:45:00,
2013-11-02 16:50:00,69.8,36.1,30.08,NW,315,2.7,5.6,29,0.00,,,0.00,WUHU216HW,2013-11-02 21:50:00,
2013-11-02 16:55:00,69.8,37.8,30.08,NE,45,2.2,6.3,31,0.00,,,0.00,WUHU216HW,2013-11-02 21:55:00,
2013-11-02 17:00:00,70.0,37.3,30.08,NNW,338,5.8,6.3,30,0.00,,,0.00,WUHU216HW,2013-11-02 22:00:00,
2013-11-02 17:05:00,71.3,36.4,30.08,North,0,2.7,5.8,28,0.00,,,0.00,WUHU216HW,2013-11-02 22:05:00,
2013-11-02 17:10:00,71.3,36.4,30.08,NNW,338,3.1,4.7,28,0.00,,,0.00,WUHU216HW,2013-11-02 22:10:00,
2013-11-02 17:15:00,71.3,36.4,30.08,NNW,338,1.3,4.7,28,0.00,,,0.00,WUHU216HW,2013-11-02 22:15:00,
2013-11-02 17:20:00,72.0,38.0,30.08,NNW,338,2.2,7.4,29,0.00,,,0.00,WUHU216HW,2013-11-02 22:20:00,
2013-11-02 17:25:00,70.4,36.5,30.08,NNW,338,4.0,7.4,29,0.00,,,0.00,WUHU216HW,2013-11-02 22:25:00,
2013-11-02 17:30:00,68.4,35.8,30.08,North,0,2.5,4.0,30,0.00,,,0.00,WUHU216HW,2013-11-02 22:30:00,
2013-11-02 17:35:00,68.0,36.2,30.08,NNW,338,1.6,3.6,31,0.00,,,0.00,WUHU216HW,2013-11-02 22:35:00,
2013-11-02 17:40:00,67.5,35.7,30.08,North,0,3.6,3.6,31,0.00,,,0.00,WUHU216HW,2013-11-02 22:40:00,
2013-11-02 17:45:00,66.6,35.7,30.08,NW,315,1.1,3.6,32,0.00,,,0.00,WUHU216HW,2013-11-02 22:45:00,
2013-11-02 17:50:00,66.6,36.5,30.08,NNE,23,1.8,3.1,33,0.00,,,0.00,WUHU216HW,2013-11-02 22:50:00,
2013-11-02 17:55:00,65.9,35.8,30.08,NNE,23,1.8,2.5,33,0.00,,,0.00,WUHU216HW,2013-11-02 22:55:00,
2013-11-02 18:00:00,65.2,34.5,30.08,North,0,2.5,2.5,32,0.00,,,0.00,WUHU216HW,2013-11-02 23:00:00,
2013-11-02 18:05:00,64.6,34.8,30.08,NNW,338,1.8,2.5,33,0.00,,,0.00,WUHU216HW,2013-11-02 23:05:00,
2013-11-02 18:10:00,64.1,34.9,30.08,NNW,338,0.0,2.7,34,0.00,,,0.00,WUHU216HW,2013-11-02 23:10:00,
2013-11-02 18:15:00,63.7,36.1,30.08,NNW,338,0.0,2.7,36,0.00,,,0.00,WUHU216HW,2013-11-02 23:15:00,
2013-11-02 18:20:00,63.4,35.7,30.08,NNW,338,0.0,0.9,36,0.00,,,0.00,WUHU216HW,2013-11-02 23:20:00,
2013-11-02 18:25:00,62.8,36.7,30.08,NNW,338,0.0,1.1,38,0.00,,,0.00,WUHU216HW,2013-11-02 23:25:00,
2013-11-02 18:30:00,62.1,36.8,30.08,NNW,338,0.0,1.1,39,0.00,,,0.00,WUHU216HW,2013-11-02 23:30:00,
2013-11-02 18:35:00,61.6,36.3,30.08,NNW,338,0.0,0.0,39,0.00,,,0.00,WUHU216HW,2013-11-02 23:35:00,
2013-11-02 18:40:00,61.2,36.7,30.09,NNW,338,0.0,0.0,40,0.00,,,0.00,WUHU216HW,2013-11-02 23:40:00,
2013-11-02 18:45:00,60.7,37.4,30.09,NNW,338,0.0,0.0,42,0.00,,,0.00,WUHU216HW,2013-11-02 23:45:00,
2013-11-02 18:50:00,60.1,37.4,30.09,NNW,338,0.0,0.0,43,0.00,,,0.00,WUHU216HW,2013-11-02 23:50:00,
2013-11-02 18:55:00,59.4,36.8,30.09,NNW,338,0.0,0.0,43,0.00,,,0.00,WUHU216HW,2013-11-02 23:55:00,
2013-11-02 19:00:00,58.1,36.8,30.09,NNW,338,0.0,0.0,45,0.00,,,0.00,WUHU216HW,2013-11-03 00:00:00,
2013-11-02 19:05:00,56.9,36.8,30.09,NNW,338,0.0,0.0,47,0.00,,,0.00,WUHU216HW,2013-11-03 00:05:00,
2013-11-02 19:10:00,56.3,38.4,30.10,NNW,338,0.0,0.0,51,0.00,,,0.00,WUHU216HW,2013-11-03 00:10:00,
2013-11-02 19:15:00,54.7,40.1,30.10,WSW,248,1.1,1.1,58,0.00,,,0.00,WUHU216HW,2013-11-03 00:15:00,
2013-11-02 19:20:00,54.2,37.8,30.10,WSW,248,0.0,1.1,54,0.00,,,0.00,WUHU216HW,2013-11-03 00:20:00,
2013-11-02 19:25:00,54.2,38.3,30.09,WSW,248,0.0,0.7,55,0.00,,,0.00,WUHU216HW,2013-11-03 00:25:00,
2013-11-02 19:30:00,53.3,39.3,30.10,WSW,248,0.0,0.0,59,0.00,,,0.00,WUHU216HW,2013-11-03 00:30:00,
2013-11-02 19:35:00,52.9,38.1,30.10,WSW,248,0.0,0.0,57,0.00,,,0.00,WUHU216HW,2013-11-03 00:35:00,
2013-11-02 19:40:00,52.6,38.6,30.10,WSW,248,0.0,0.0,59,0.00,,,0.00,WUHU216HW,2013-11-03 00:40:00,
2013-11-02 19:45:00,52.2,37.8,30.10,WSW,248,0.0,0.0,58,0.00,,,0.00,WUHU216HW,2013-11-03 00:45:00,
2013-11-02 19:50:00,52.2,37.8,30.10,WSW,248,0.0,0.0,58,0.00,,,0.00,WUHU216HW,2013-11-03 00:50:00,
2013-11-02 19:55:00,52.2,38.3,30.11,WSW,248,0.0,0.0,59,0.00,,,0.00,WUHU216HW,2013-11-03 00:55:00,
2013-11-02 20:00:00,51.8,37.9,30.10,WSW,248,0.0,0.0,59,0.00,,,0.00,WUHU216HW,2013-11-03 01:00:00,
2013-11-02 20:05:00,51.7,38.6,30.11,WSW,248,0.0,0.0,61,0.00,,,0.00,WUHU216HW,2013-11-03 01:05:00,
2013-11-02 20:10:00,51.5,38.0,30.11,WSW,248,0.0,0.0,60,0.00,,,0.00,WUHU216HW,2013-11-03 01:10:00,
2013-11-02 20:15:00,50.6,38.0,30.11,WSW,248,0.0,0.0,62,0.00,,,0.00,WUHU216HW,2013-11-03 01:15:00,
2013-11-02 20:20:00,50.2,38.1,30.11,WSW,248,0.0,0.0,63,0.00,,,0.00,WUHU216HW,2013-11-03 01:20:00,
2013-11-02 20:25:00,50.0,39.1,30.11,WSW,248,0.0,0.0,66,0.00,,,0.00,WUHU216HW,2013-11-03 01:25:00,
2013-11-02 20:30:00,49.3,38.8,30.11,WSW,248,0.0,0.0,67,0.00,,,0.00,WUHU216HW,2013-11-03 01:30:00,
2013-11-02 20:35:00,49.0,38.8,30.12,WSW,248,0.0,0.0,68,0.00,,,0.00,WUHU216HW,2013-11-03 01:35:00,
2013-11-02 20:40:00,49.0,38.8,30.12,WSW,248,0.0,0.0,68,0.00,,,0.00,WUHU216HW,2013-11-03 01:40:00,
2013-11-02 20:45:00,49.0,39.3,30.11,WSW,248,0.0,0.0,69,0.00,,,0.00,WUHU216HW,2013-11-03 01:45:00,
2013-11-02 20:50:00,49.0,39.3,30.12,WSW,248,0.0,0.0,69,0.00,,,0.00,WUHU216HW,2013-11-03 01:50:00,
2013-11-02 20:55:00,48.4,39.1,30.12,WSW,248,0.0,0.0,70,0.00,,,0.00,WUHU216HW,2013-11-03 01:55:00,
2013-11-02 21:00:00,47.7,39.1,30.12,WSW,248,0.0,0.0,72,0.00,,,0.00,WUHU216HW,2013-11-03 02:00:00,
2013-11-02 21:05:00,47.2,38.6,30.12,WSW,248,0.0,0.0,72,0.00,,,0.00,WUHU216HW,2013-11-03 02:05:00,
2013-11-02 21:10:00,47.2,38.3,30.13,WSW,248,0.0,0.0,71,0.00,,,0.00,WUHU216HW,2013-11-03 02:10:00,
2013-11-02 21:15:00,47.2,37.9,30.13,WSW,248,0.0,0.0,70,0.00,,,0.00,WUHU216HW,2013-11-03 02:15:00,
2013-11-02 21:20:00,47.2,37.9,30.13,WSW,248,0.0,0.0,70,0.00,,,0.00,WUHU216HW,2013-11-03 02:20:00,
2013-11-02 21:25:00,47.2,38.3,30.13,WSW,248,0.0,0.0,71,0.00,,,0.00,WUHU216HW,2013-11-03 02:25:00,
2013-11-02 21:30:00,47.2,37.9,30.13,WSW,248,0.0,0.0,70,0.00,,,0.00,WUHU216HW,2013-11-03 02:30:00,
2013-11-02 21:35:00,47.2,38.3,30.13,WSW,248,0.0,0.0,71,0.00,,,0.00,WUHU216HW,2013-11-03 02:35:00,
2013-11-02 21:40:00,47.2,39.0,30.13,WSW,248,0.0,0.0,73,0.00,,,0.00,WUHU216HW,2013-11-03 02:40:00,
2013-11-02 21:45:00,46.4,39.0,30.13,WSW,248,0.0,0.0,75,0.00,,,0.00,WUHU216HW,2013-11-03 02:45:00,
2013-11-02 21:50:00,45.9,39.8,30.13,WSW,248,0.0,0.0,79,0.00,,,0.00,WUHU216HW,2013-11-03 02:50:00,
2013-11-02 21:55:00,45.7,39.0,30.13,WSW,248,0.0,0.0,77,0.00,,,0.00,WUHU216HW,2013-11-03 02:55:00,
2013-11-02 22:00:00,45.2,39.7,30.13,WSW,248,0.0,0.0,81,0.00,,,0.00,WUHU216HW,2013-11-03 03:00:00,
2013-11-02 22:05:00,44.8,38.7,30.13,WSW,248,0.0,0.0,79,0.00,,,0.00,WUHU216HW,2013-11-03 03:05:00,
2013-11-02 22:10:00,44.8,38.3,30.13,WSW,248,0.0,0.0,78,0.00,,,0.00,WUHU216HW,2013-11-03 03:10:00,
2013-11-02 22:15:00,44.6,38.9,30.13,WSW,248,0.0,0.0,80,0.00,,,0.00,WUHU216HW,2013-11-03 03:15:00,
2013-11-02 22:20:00,44.6,38.2,30.13,WSW,248,0.0,0.0,78,0.00,,,0.00,WUHU216HW,2013-11-03 03:20:00,
2013-11-02 22:25:00,44.8,39.1,30.13,WSW,248,0.0,0.0,80,0.00,,,0.00,WUHU216HW,2013-11-03 03:25:00,
2013-11-02 22:30:00,44.6,38.2,30.13,WSW,248,0.0,0.0,78,0.00,,,0.00,WUHU216HW,2013-11-03 03:30:00,
2013-11-02 22:35:00,44.6,38.2,30.13,WSW,248,0.0,0.0,78,0.00,,,0.00,WUHU216HW,2013-11-03 03:35:00,
2013-11-02 22:40:00,44.6,38.2,30.13,WSW,248,0.0,0.0,78,0.00,,,0.00,WUHU216HW,2013-11-03 03:40:00,
2013-11-02 22:45:00,44.6,37.9,30.13,WSW,248,0.0,0.0,77,0.00,,,0.00,WUHU216HW,2013-11-03 03:45:00,
2013-11-02 22:50:00,44.6,37.9,30.13,WSW,248,0.0,0.0,77,0.00,,,0.00,WUHU216HW,2013-11-03 03:50:00,
2013-11-02 22:55:00,44.3,37.5,30.13,WSW,248,0.0,0.0,77,0.00,,,0.00,WUHU216HW,2013-11-03 03:55:00,
2013-11-02 23:00:00,44.3,37.5,30.13,WSW,248,0.0,0.0,77,0.00,,,0.00,WUHU216HW,2013-11-03 04:00:00,
2013-11-02 23:01:00,44.3,37.5,30.13,WSW,248,0.0,0.0,77,0.00,,,0.00,WUHU216HW,2013-11-03 04:01:00,
2013-11-02 23:06:00,44.1,37.4,30.14,WSW,248,0.0,0.0,77,0.00,,,0.00,WUHU216HW,2013-11-03 04:06:00,
2013-11-02 23:11:00,43.9,37.8,30.13,WSW,248,0.0,0.0,79,0.00,,,0.00,WUHU216HW,2013-11-03 04:11:00,
2013-11-02 23:16:00,43.9,38.4,30.13,WSW,248,0.0,0.0,81,0.00,,,0.00,WUHU216HW,2013-11-03 04:16:00,
2013-11-02 23:21:00,43.9,38.2,30.14,WSW,248,0.0,0.0,80,0.00,,,0.00,WUHU216HW,2013-11-03 04:21:00,
2013-11-02 23:26:00,43.7,37.6,30.13,WSW,248,0.0,0.0,79,0.00,,,0.00,WUHU216HW,2013-11-03 04:26:00,
2013-11-02 23:31:00,43.7,37.6,30.13,WSW,248,0.0,0.0,79,0.00,,,0.00,WUHU216HW,2013-11-03 04:31:00,
2013-11-02 23:36:00,43.6,37.2,30.13,WSW,248,0.0,0.0,78,0.00,,,0.00,WUHU216HW,2013-11-03 04:36:00,
2013-11-02 23:41:00,43.4,37.3,30.13,WSW,248,0.0,0.0,79,0.00,,,0.00,WUHU216HW,2013-11-03 04:41:00,
2013-11-02 23:46:00,43.4,37.3,30.13,WSW,248,0.0,0.0,79,0.00,,,0.00,WUHU216HW,2013-11-03 04:46:00,
2013-11-02 23:51:00,43.4,37.3,30.13,WSW,248,0.0,0.0,79,0.00,,,0.00,WUHU216HW,2013-11-03 04:51:00,
2013-11-02 23:56:00,43.2,37.1,30.12,WSW,248,0.0,0.0,79,0.00,,,0.00,WUHU216HW,2013-11-03 04:56:00,